STARLINK-36746, 67733

Orbit data source: Space-Track

STARLINK-36746, 67733 is a payload satellite owned by SpaceX/Seattle (US) in SSO that was launched on Wed, 11 Feb 2026 UTC via an FALCON 9 launch vehicle from the Air Force Western Test Range (AFWTR). Payload-class satellites include a variety of spacecraft equipped with specific instruments for various scientific and technological missions. These include communications satellites like Starlink; space stations such as the ISS; scientific satellites like the Hubble; Earth observation satellites from companies like Planet Labs, Umbra, and HawkEye 360; GPS; miniature CubeSats for education and research; and military/defense satellites.

Loading next visibility...
Identifier
67733, 2026-026N
Orbit
SSO
Country
Flag of USUS
Related business
Manufacturer
SpaceX/Seattle
Mission
Operational Commercial Communications
Bus & Motor
STARLINK V2MO, Unknown motor
Mass
575 kg wet, ~530 kg dry
Launch date (UTC)
2026-02-11 (3 months ago)
Launch vehicle
FALCON 9
Launch site
Air Force Western Test Range (AFWTR)
Object type
Payload
Rocket body
Debris
Shape & HBR
Box + 2 Pan, 17.7 m
Radar Cross Section
36.964 m²

Expand to show TLE details & history
Last TLE update: 8 hours ago

TLE from 8 hours ago
0 STARLINK-36746
1 67733U 26026N   26130.13694106  .00002484  00000-0  79271-4 0  9992
2 67733  97.2845 183.8804 0001117 100.5317 259.6051 15.33435911 13548
Epoch: 2026-05-10T03:17Z
TLE epoch observation values (Epoch: 2026-05-10T03:17:11.707Z)
Latitude
-0.00009°
Longitude
-93.36271°
Altitude
468.82 km
Speed
7.632 km/s
True Right ascension
12h 15m 31s
True Declination
0° 00' 00"
Sunlit
Object was in full shadow at epoch
Visualization orbit readout
Latitude
Unknown
Longitude
Unknown
Altitude
Unknown
Speed
Unknown
Apparent Right ascension
Unknown
Apparent Declination
Unknown
Sunlit
N/A
Visualization observer readout
Local Sidereal Time
19:48:26
Azimuth
Unknown
Elevation
Unknown
Doppler factor
Unknown
Orbital elements
Apogee altitude
463.277 km
Perigee altitude
461.749 km
Semi-major axis
6,840.65 km
Eccentricity
0.00011
Inclination
97.2845°
RAAN
183.8804°
Arg. of periapsis
100.5317°
True anomaly
259.59251°
Mean anomaly
259.6051°
Eccentric anomaly
259.59881°
Mean motion
3.83616 °/min
Orbital period
93.84 mins
BSTAR
0.000079271
Loading maneuver chart data...
Computing Atmospheric mass density...
Loading historical data...
Loading historical data...
Loading historical data...
Loading historical data...
Loading historical data...
Loading historical data...
Loading historical data...

Documentation

Showing up to 5 results
|